Wind_Speed
24 23 24 25 26 25 23 21 20 21 23 24 25 28 27 26 27 29 28 26 26 26 27 30 31 33 34 36 36 36 38 38 38 36 34 33 32 33 34 35 36 37 38 38
25 24 25 27 27 24 24 23 23 25 27 28 29 30 30 27 27 27 26 27 27 28 30 32 34 36 37 39 39 39 38 37 35 33 33 33 34 36 37 39 40 41 40 39
27 25 26 26 27 27 27 27 28 29 31 31 31 30 31 29 28 26 27 29 30 32 34 36 37 39 40 40 39 36 34 33 32 33 34 35 37 38 38 39 40 40 40 41
28 27 27 27 28 29 30 30 30 31 32 32 32 32 28 29 27 28 31 33 34 36 38 39 38 38 38 37 34 32 32 33 34 35 36 37 39 40 41 42 43 44 45 47
27 29 29 29 29 30 29 30 31 32 33 34 32 34 31 29 30 32 35 36 39 39 40 39 37 35 32 31 31 32 34 36 37 39 39 41 43 45 45 47 49 51 52 52
27 27 27 28 29 30 31 31 32 33 34 36 32 34 35 34 34 36 38 40 40 38 35 32 30 29 29 31 34 37 39 41 42 43 45 49 50 52 54 55 54 55 56 56
26 26 27 29 30 31 31 31 33 34 35 36 36 38 36 37 38 39 38 37 33 30 28 29 29 30 33 36 40 43 45 45 47 50 52 54 57 58 59 60 61 61 61 61
27 27 28 28 30 30 30 31 33 37 38 40 42 43 40 38 35 32 29 27 27 28 30 32 34 37 39 41 45 48 50 52 52 54 57 59 60 62 63 63 64 64 63 63
26 28 28 30 31 31 31 32 33 35 37 39 39 38 36 30 28 26 24 26 29 31 34 36 37 40 45 49 51 52 54 56 57 60 63 65 66 66 67 67 67 66 66 65
29 30 30 31 32 32 33 34 33 33 38 37 35 32 28 27 25 26 29 33 36 38 39 40 44 47 48 51 53 55 58 61 64 66 68 69 70 71 71 70 70 70 71 72
32 34 33 34 33 35 36 36 36 37 40 39 40 37 33 32 34 35 39 42 42 42 42 45 47 50 52 54 57 61 63 65 67 69 71 72 72 72 72 73 74 76 77 80
37 38 36 36 36 36 38 37 38 40 40 42 42 40 36 36 38 41 43 43 44 45 47 50 52 54 57 60 62 65 67 69 71 72 72 72 72 74 76 78 81 84 85 87
38 40 38 38 38 38 38 39 40 42 44 44 41 41 39 40 42 44 45 46 47 50 53 55 57 60 62 63 65 68 69 71 72 72 74 76 78 79 81 83 85 87 90 90
42 42 41 41 42 41 41 40 41 43 44 39 42 40 43 45 45 47 49 51 54 56 58 62 63 65 68 71 73 74 75 76 76 77 80 81 84 87 89 92 94 96 97 96
46 46 44 43 45 45 45 44 44 44 42 44 42 44 46 47 49 51 53 56 59 61 63 64 67 70 71 71 73 74 75 76 79 81 84 86 89 91 93 94 95 94 93 93
47 48 46 47 47 47 48 49 45 44 44 47 47 50 47 50 52 55 58 58 60 62 65 67 68 68 69 72 74 76 79 81 84 86 89 91 92 93 93 92 91 92 93 93
48 47 47 49 47 49 55 47 46 47 48 49 51 51 53 54 55 57 59 61 64 65 65 66 68 69 71 75 77 79 82 86 89 91 92 93 94 94 93 95 96 97 97 96
51 50 51 53 51 54 52 52 50 50 51 52 53 54 55 57 60 61 62 62 63 65 65 67 69 72 75 79 81 85 88 90 91 92 91 93 94 95 96 96 93 88 84 82
55 54 54 56 58 58 56 55 55 55 55 55 54 54 55 57 57 58 60 61 62 63 66 69 72 75 79 83 86 88 90 91 91 91 93 93 93 92 85 75 67 61 62 63
56 56 57 60 61 62 61 59 58 57 57 52 53 54 55 56 57 58 60 62 65 68 71 74 77 80 83 86 88 89 90 90 88 91 91 88 78 68 59 55 54 54 58 57
60 59 58 59 62 62 61 59 57 56 51 53 54 55 55 56 57 60 63 66 69 72 75 78 81 83 86 87 88 88 89 89 90 89 81 67 55 53 53 54 54 55 57 55
62 61 63 59 60 60 55 53 52 53 52 52 53 54 57 60 62 65 68 70 73 76 79 81 83 84 84 84 86 88 88 87 81 68 57 53 53 54 56 58 56 57 58 56
59 57 57 56 52 49 49 49 50 50 50 53 56 58 61 64 66 69 71 74 77 79 81 81 82 82 82 83 84 85 80 70 59 51 52 54 54 57 58 58 59 59 56 55
49 49 49 46 46 45 46 47 49 52 55 58 60 62 65 68 70 72 76 77 78 78 78 77 78 80 81 80 77 69 57 49 49 50 52 54 58 59 60 60 57 55 53 53
44 44 45 44 44 45 47 50 53 56 58 60 63 66 68 70 73 77 76 75 76 76 74 78 80 79 76 68 56 47 46 47 48 51 54 58 59 58 57 53 51 53 50 49
43 43 45 46 47 49 52 54 57 58 60 63 66 67 70 74 75 74 73 74 74 74 76 76 75 70 58 48 41 42 45 48 52 53 56 58 57 54 51 46 43 42 40 38
Wind_Direction
186 192 196 199 206 213 219 225 230 240 248 256 261 268 270 273 275 279 282 279 277 280 282 282 283 282 283 286 290 291 291 292 293 295 298 299 299 298 300 302 302 302 301 300
187 192 197 203 212 219 227 233 238 244 251 257 262 268 273 274 274 274 274 276 279 280 279 280 281 284 287 287 288 288 289 291 295 297 298 299 300 302 303 303 302 301 301 301
190 196 202 208 215 223 229 236 242 249 254 260 265 267 273 273 273 274 274 275 278 280 283 284 286 288 287 287 287 289 292 294 295 297 298 299 300 302 302 300 299 299 299 299
196 202 209 215 223 230 237 244 251 257 262 266 268 270 270 273 274 274 276 279 282 283 284 284 286 286 285 287 289 290 292 294 294 296 298 300 301 301 300 299 298 297 297 297
207 213 218 226 234 240 250 255 260 262 265 267 270 272 271 270 273 275 276 279 281 283 283 283 284 285 286 288 289 290 292 293 294 296 299 300 299 298 297 297 297 297 297 297
220 226 232 238 244 249 253 257 260 262 265 267 270 272 274 278 279 279 281 281 282 283 283 283 282 283 287 290 294 293 292 293 295 299 299 299 299 298 299 298 298 296 295 294
232 236 241 245 248 251 253 256 261 264 266 270 274 273 275 280 281 283 283 283 281 278 276 277 284 290 292 293 292 290 292 296 298 297 296 296 297 298 298 297 297 296 294 293
238 240 243 246 248 252 256 261 266 271 274 275 274 276 281 281 282 281 279 277 277 278 281 286 290 292 291 289 289 292 294 294 294 294 295 296 296 296 295 293 292 291 290 289
241 243 246 249 253 257 261 266 269 274 277 278 280 282 281 283 280 277 273 273 277 281 284 288 288 287 287 287 289 292 295 296 295 294 295 295 294 293 292 292 291 290 289 288
248 253 255 258 260 262 264 266 271 273 276 277 279 281 284 281 279 279 280 281 280 282 284 285 285 286 287 288 291 294 295 294 293 294 294 295 295 295 294 293 292 290 289 288
257 258 260 263 265 265 267 270 271 273 275 280 281 282 280 281 280 278 276 276 279 283 286 287 286 286 289 292 293 292 291 292 294 294 293 293 293 293 292 291 290 289 288 288
256 260 261 262 264 267 268 268 270 271 274 275 278 281 282 282 278 277 279 284 288 289 288 286 287 289 290 290 289 290 293 293 292 291 291 291 291 291 291 290 289 289 288 287
255 256 257 259 263 264 266 265 266 268 269 272 277 281 279 277 278 280 283 285 284 284 284 287 288 288 288 290 291 291 291 292 293 294 294 293 292 291 289 287 286 286 286 285
254 255 258 261 263 264 266 267 269 271 273 280 275 281 280 279 281 283 285 286 286 287 288 289 291 293 295 296 297 298 297 297 295 294 294 293 292 291 290 290 289 288 288 288
261 261 261 262 263 265 266 267 268 270 273 273 276 275 276 280 282 283 284 285 287 288 289 291 293 294 295 295 294 293 292 291 291 291 291 291 291 292 292 292 291 290 289 289
260 262 263 263 265 267 268 268 271 276 276 276 277 277 281 280 282 283 284 284 286 288 290 290 290 291 292 292 292 291 292 293 293 293 292 292 292 292 292 292 292 292 290 288
260 263 265 265 266 269 268 273 275 275 276 277 278 280 281 283 283 283 283 284 285 287 288 290 291 292 291 291 292 292 293 293 293 294 295 296 297 297 297 296 295 293 291 290
263 264 265 267 268 266 271 273 274 275 276 279 281 281 282 281 281 282 284 286 287 289 290 291 292 292 293 293 294 295 296 297 297 299 300 300 299 298 297 296 295 294 292 291
261 263 266 266 267 269 272 273 273 277 278 279 279 279 278 280 283 284 287 287 288 290 291 292 293 295 296 297 298 298 298 298 300 301 300 301 299 298 298 297 298 298 295 294
260 261 263 266 267 270 271 274 279 282 282 283 281 283 284 286 287 288 290 291 292 294 295 295 296 297 297 297 297 297 300 301 302 302 302 301 300 298 301 301 301 300 300 304
257 261 263 264 268 272 275 279 280 278 280 280 283 285 287 287 288 289 291 293 294 294 294 295 295 296 297 299 300 301 303 305 303 302 302 301 303 302 301 299 301 300 300 300
259 259 263 270 274 275 276 274 275 276 279 282 284 285 288 290 290 291 291 292 293 294 295 296 297 298 300 302 303 304 304 302 303 301 303 304 304 304 301 303 302 302 301 300
265 267 268 269 271 270 272 273 275 280 282 283 283 285 287 287 287 289 291 294 295 296 297 298 300 301 303 303 304 303 303 301 300 303 304 306 305 305 304 304 304 302 299 299
262 264 266 266 267 267 270 275 277 279 280 281 283 285 286 288 290 292 294 295 296 298 299 300 301 301 303 303 302 301 299 300 303 305 310 309 306 307 306 304 303 303 300 299
260 260 262 265 267 270 272 274 276 278 281 283 285 286 288 289 291 293 295 297 299 299 299 299 302 303 303 303 300 298 300 303 308 309 308 310 310 310 309 305 303 303 302 301
258 261 263 265 268 272 275 277 279 280 282 283 284 287 290 292 294 295 297 297 297 299 300 301 302 302 302 299 298 300 304 308 312 311 311 313 313 312 312 310 308 306 306 303
Height
5802 5807 5810 5813 5816 5820 5823 5825 5828 5829 5829 5829 5830 5829 5830 5830 5829 5827 5826 5825 5825 5824 5822 5820 5818 5816 5815 5813 5811 5809 5806 5803 5800 5797 5794 5792 5790 5788 5785 5783 5780 5777 5775 5771
5800 5803 5806 5810 5813 5816 5819 5821 5823 5823 5823 5823 5823 5823 5823 5823 5823 5822 5821 5819 5818 5817 5815 5813 5810 5808 5808 5805 5802 5799 5796 5794 5792 5790 5787 5785 5782 5780 5777 5775 5772 5769 5767 5763
5796 5800 5803 5806 5809 5812 5813 5815 5816 5817 5816 5816 5816 5817 5816 5816 5815 5815 5813 5811 5810 5809 5807 5805 5803 5801 5799 5796 5794 5791 5789 5786 5785 5782 5780 5777 5775 5772 5769 5766 5763 5760 5758 5755
5793 5796 5799 5802 5804 5806 5807 5808 5809 5810 5810 5810 5810 5809 5809 5807 5807 5807 5805 5803 5802 5800 5798 5796 5794 5792 5790 5788 5786 5783 5780 5778 5776 5774 5771 5769 5766 5763 5760 5757 5754 5750 5747 5744
5791 5792 5794 5796 5798 5800 5802 5802 5802 5802 5802 5802 5803 5801 5802 5801 5800 5799 5798 5796 5794 5792 5789 5787 5784 5783 5782 5780 5777 5774 5772 5770 5767 5765 5762 5759 5756 5753 5750 5747 5744 5740 5736 5732
5785 5787 5789 5791 5793 5794 5795 5795 5795 5795 5794 5794 5795 5794 5793 5793 5791 5790 5789 5787 5785 5782 5780 5778 5776 5775 5774 5772 5769 5766 5763 5761 5758 5756 5752 5749 5745 5742 5738 5734 5730 5726 5722 5719
5781 5782 5784 5785 5787 5787 5788 5787 5787 5787 5786 5786 5785 5785 5787 5784 5781 5780 5778 5776 5775 5773 5771 5770 5769 5768 5766 5762 5758 5754 5752 5751 5748 5745 5740 5736 5731 5727 5723 5718 5714 5711 5707 5703
5775 5777 5778 5779 5780 5780 5780 5781 5780 5777 5777 5777 5775 5774 5776 5775 5774 5771 5769 5768 5766 5765 5763 5762 5761 5758 5755 5751 5747 5744 5741 5738 5735 5730 5726 5721 5717 5713 5708 5703 5698 5694 5690 5687
5769 5770 5771 5772 5772 5773 5773 5772 5771 5769 5768 5765 5766 5766 5766 5766 5764 5763 5762 5760 5759 5758 5756 5754 5752 5748 5743 5738 5734 5731 5729 5725 5721 5715 5711 5707 5702 5697 5692 5687 5682 5677 5672 5668
5762 5762 5763 5763 5763 5764 5763 5764 5763 5762 5758 5757 5757 5757 5757 5756 5757 5755 5753 5751 5749 5747 5745 5742 5738 5735 5731 5727 5723 5719 5715 5710 5705 5700 5694 5689 5683 5678 5673 5668 5663 5658 5654 5649
5752 5753 5755 5754 5755 5755 5755 5754 5754 5752 5750 5747 5746 5748 5748 5747 5745 5743 5740 5738 5736 5734 5731 5728 5725 5721 5717 5714 5709 5704 5699 5694 5689 5684 5678 5672 5666 5660 5654 5649 5643 5637 5632 5625
5742 5741 5744 5744 5744 5744 5744 5744 5743 5740 5740 5737 5735 5736 5736 5735 5732 5729 5726 5724 5722 5721 5718 5714 5711 5709 5705 5699 5693 5688 5683 5678 5672 5666 5660 5654 5647 5641 5635 5628 5620 5614 5609 5602
5731 5729 5732 5733 5735 5734 5733 5733 5731 5729 5726 5725 5726 5724 5723 5722 5720 5717 5715 5714 5711 5708 5704 5701 5697 5692 5687 5683 5678 5673 5666 5660 5654 5647 5640 5634 5627 5620 5614 5607 5600 5592 5584 5578
5719 5719 5721 5722 5720 5722 5721 5721 5719 5718 5716 5718 5714 5714 5711 5708 5707 5704 5702 5699 5695 5691 5688 5683 5679 5674 5668 5662 5656 5649 5643 5636 5631 5625 5618 5611 5603 5595 5587 5579 5571 5563 5554 5548
5707 5707 5709 5709 5707 5707 5708 5708 5707 5707 5707 5704 5706 5702 5699 5698 5694 5691 5688 5684 5679 5674 5670 5665 5661 5656 5651 5645 5639 5633 5626 5619 5611 5605 5597 5589 5580 5571 5562 5553 5544 5537 5530 5521
5695 5694 5697 5698 5697 5696 5695 5693 5695 5695 5694 5691 5690 5687 5688 5683 5680 5677 5673 5669 5664 5659 5655 5650 5645 5640 5634 5628 5621 5614 5606 5599 5590 5582 5575 5566 5557 5548 5538 5529 5519 5508 5500 5492
5683 5684 5685 5684 5686 5684 5678 5685 5684 5682 5681 5680 5677 5677 5673 5670 5665 5662 5659 5655 5651 5646 5641 5635 5629 5621 5615 5608 5601 5594 5586 5578 5568 5559 5550 5541 5529 5518 5509 5498 5488 5477 5466 5457
5670 5671 5670 5668 5670 5667 5671 5669 5670 5668 5666 5664 5662 5661 5659 5655 5650 5646 5643 5640 5635 5630 5624 5618 5610 5603 5595 5586 5579 5571 5562 5553 5542 5533 5523 5513 5501 5489 5479 5468 5457 5447 5437 5427
5656 5657 5656 5655 5653 5654 5654 5655 5654 5653 5653 5650 5648 5646 5643 5640 5636 5631 5628 5623 5618 5612 5606 5600 5592 5584 5576 5566 5556 5548 5540 5529 5520 5510 5498 5487 5473 5460 5450 5440 5432 5425 5415 5408
5643 5644 5642 5640 5638 5637 5639 5640 5639 5635 5634 5632 5629 5627 5626 5622 5619 5613 5609 5604 5598 5591 5584 5578 5572 5565 5556 5545 5533 5526 5518 5507 5497 5484 5474 5462 5451 5439 5430 5422 5416 5408 5398 5389
5625 5626 5626 5624 5621 5624 5625 5624 5621 5620 5625 5616 5614 5611 5608 5606 5603 5598 5592 5586 5579 5573 5567 5560 5554 5547 5535 5523 5511 5503 5493 5482 5469 5459 5450 5440 5432 5423 5416 5408 5401 5392 5383 5376
5607 5606 5608 5610 5609 5609 5610 5607 5607 5604 5602 5601 5598 5594 5592 5589 5584 5580 5574 5569 5562 5556 5548 5539 5533 5525 5515 5502 5488 5480 5470 5458 5448 5439 5431 5424 5417 5409 5401 5392 5386 5377 5367 5360
5593 5594 5594 5596 5595 5594 5592 5590 5589 5589 5587 5585 5583 5580 5577 5573 5568 5563 5558 5552 5545 5537 5529 5519 5509 5503 5496 5483 5469 5456 5449 5439 5432 5426 5419 5411 5403 5395 5386 5376 5369 5361 5352 5344
5578 5578 5577 5580 5581 5580 5579 5578 5575 5573 5572 5570 5568 5565 5560 5556 5550 5545 5540 5533 5526 5518 5508 5499 5490 5482 5476 5464 5453 5439 5432 5426 5420 5414 5406 5398 5389 5380 5371 5362 5353 5344 5337 5330
5565 5565 5565 5565 5567 5567 5566 5565 5562 5559 5557 5554 5551 5546 5542 5539 5534 5528 5524 5515 5507 5498 5490 5481 5471 5461 5454 5445 5436 5428 5421 5415 5409 5402 5394 5385 5374 5365 5356 5347 5339 5331 5324 5315
5550 5552 5553 5552 5553 5553 5551 5549 5547 5544 5541 5538 5535 5531 5525 5518 5514 5508 5504 5496 5487 5480 5471 5463 5455 5444 5436 5429 5424 5419 5411 5404 5397 5390 5381 5370 5359 5351 5342 5334 5328 5319 5311 5306